Weather History for KHWV - August, 2014

Change the Weather History Date:

Tuesday, August 26, 2014

  Actual Average (KISP) Record (KISP)
Temperature  
Mean Temperature 72 °F 72 °F  
Max Temperature 84 °F 79 °F 90 °F (1993)
Min Temperature 61 °F 64 °F 53 °F (2004)
Degree Days  
Heating Degree Days 0 0  
Month to date heating degree days 0  
Since 1 June heating degree days 40  
Since 1 July heating degree days 2  
Cooling Degree Days 6 7  
Month to date cooling degree days 215  
Year to date cooling degree days 655  
Since 1 June cooling degree days 631  
Growing Degree Days 22 (Base 50)    
Moisture  
Dew Point 62 °F    
Average Humidity 80    
Maximum Humidity 97    
Minimum Humidity 50    
Precipitation  
Precipitation 0.00 in 0.11 in 0.92 in (1999)
Month to date precipitation 3.38  
Year to date precipitation 30.54  
Snow  
Snow 0.00 in 0.00 in - ()
Month to date snowfall 0.0  
Since 1 July snowfall 0.0  
Snow Depth -    
Sea Level Pressure  
Sea Level Pressure 30.14 in    
Wind  
Wind Speed 2 mph (South)    
Max Wind Speed 12 mph    
Max Gust Speed -    
Visibility 7 miles    
Events Fog    
T = Trace of Precipitation, MM = Missing Value Source: NWS Daily Summary

Daily Weather History Graph

Daily Weather History Graph

Search for Another Location

Airport or City:

Trip Planner

Search our weather history database for the weather conditions in past years. The results will help you decide how hot, cold, wet, or windy it might be!

Date:

Astronomy

Aug. 26, 2014 Rise Set
Actual Time 6:12 AM EDT 7:33 PM EDT
Civil Twilight 5:43 AM EDT 8:01 PM EDT
Nautical Twilight 5:09 AM EDT 8:35 PM EDT
Astronomical Twilight 4:33 AM EDT 9:11 PM EDT
Moon 7:10 AM EDT (8/26) 7:52 PM EDT (8/26)
Length of Visible Light 14h 17m
Length of Day
13h 20m
New Moon, 1% of the Moon is Illuminated
Aug 26
New Moon
Sep 2
First Quarter
Sep 8
Full
Sep 15
Last Quarter
Sep 24
New

Hourly Weather History & Observations

Time (EDT) Temp. Heat Index Dew Point Humidity Pressure Visibility Wind Dir Wind Speed Gust Speed Precip Events Conditions
12:56 AM 64.9 °F - 64.0 °F 97% 30.15 in 9.0 mi Calm Calm - N/A   Clear
1:45 AM 64.9 °F - 62.1 °F 90% 30.14 in 7.0 mi Calm Calm - N/A   Scattered Clouds
1:56 AM 64.9 °F - 63.0 °F 93% 30.13 in 8.0 mi Calm Calm - N/A   Mostly Cloudy
2:13 AM 64.9 °F - 63.0 °F 93% 30.14 in 1.2 mi Calm Calm - N/A   Overcast
2:32 AM 64.0 °F - 62.1 °F 93% 30.13 in 0.2 mi Calm Calm - N/A Fog Fog
2:56 AM 64.0 °F - 62.1 °F 93% 30.14 in 0.2 mi Calm Calm - N/A Fog Fog
3:07 AM 63.0 °F - 62.1 °F 97% 30.13 in 1.0 mi Calm Calm - N/A   Mist
3:17 AM 63.0 °F - 62.1 °F 97% 30.14 in 2.5 mi Calm Calm - N/A   Overcast
3:25 AM 63.0 °F - 61.0 °F 93% 30.14 in 5.0 mi Calm Calm - N/A   Overcast
3:52 AM 62.6 °F - 60.8 °F 94% 30.13 in 1.5 mi Calm Calm - N/A   Overcast
3:56 AM 63.0 °F - 61.0 °F 93% 30.13 in 0.5 mi Calm Calm - N/A Fog Fog
4:13 AM 62.1 °F - 61.0 °F 96% 30.13 in 2.0 mi Calm Calm - N/A   Mostly Cloudy
4:21 AM 62.1 °F - 60.1 °F 93% 30.14 in 5.0 mi Calm Calm - N/A   Mostly Cloudy
4:44 AM 62.1 °F - 60.1 °F 93% 30.14 in 7.0 mi Calm Calm - N/A   Scattered Clouds
4:56 AM 62.1 °F - 60.1 °F 93% 30.15 in 5.0 mi Calm Calm - N/A   Mostly Cloudy
5:12 AM 62.1 °F - 60.1 °F 93% 30.15 in 5.0 mi Calm Calm - N/A   Scattered Clouds
5:56 AM 61.0 °F - 60.1 °F 97% 30.16 in 6.0 mi Calm Calm - N/A   Partly Cloudy
6:56 AM 62.1 °F - 60.1 °F 93% 30.17 in 6.0 mi Calm Calm - N/A   Clear
7:56 AM 70.0 °F - 66.9 °F 90% 30.18 in 10.0 mi Calm Calm - N/A   Clear
8:56 AM 73.9 °F - 64.9 °F 73% 30.18 in 10.0 mi SSE 4.6 mph - N/A   Clear
9:56 AM 77.0 °F - 64.9 °F 66% 30.18 in 10.0 mi SW 4.6 mph - N/A   Clear
10:56 AM 80.1 °F 81.9 °F 64.9 °F 60% 30.17 in 10.0 mi SSE 6.9 mph - N/A   Unknown
11:56 AM 80.1 °F 81.7 °F 64.0 °F 58% 30.17 in 10.0 mi South 6.9 mph - N/A   Clear
12:56 PM 82.0 °F 83.1 °F 63.0 °F 52% 30.16 in 10.0 mi SW 4.6 mph - N/A   Clear
1:56 PM 82.9 °F 84.4 °F 64.0 °F 53% 30.16 in 10.0 mi South 11.5 mph - N/A   Clear
2:56 PM 80.1 °F 81.2 °F 62.1 °F 54% 30.15 in 10.0 mi South 8.1 mph - N/A   Clear
3:56 PM 80.1 °F 80.9 °F 60.1 °F 50% 30.13 in 10.0 mi South 8.1 mph - N/A   Clear
4:56 PM 78.1 °F - 61.0 °F 56% 30.12 in 10.0 mi South 10.4 mph - N/A   Clear
5:56 PM 75.9 °F - 61.0 °F 60% 30.10 in 10.0 mi SSW 8.1 mph - N/A   Clear
6:56 PM 73.9 °F - 62.1 °F 66% 30.10 in 10.0 mi South 5.8 mph - N/A   Clear
7:56 PM 72.0 °F - 62.1 °F 71% 30.10 in 10.0 mi South 6.9 mph - N/A   Clear
8:56 PM 70.0 °F - 61.0 °F 73% 30.12 in 10.0 mi South 5.8 mph - N/A   Clear
9:56 PM 70.0 °F - 62.1 °F 76% 30.12 in 10.0 mi SSW 4.6 mph - N/A   Clear
10:56 PM 69.1 °F - 62.1 °F 78% 30.11 in 10.0 mi SSW 3.5 mph - N/A   Clear
11:56 PM 69.1 °F - 63.0 °F 81% 30.10 in 10.0 mi SSW 4.6 mph - N/A   Clear